EW0888 Miami Beach FL US current weather conditions

sailwx.info

Wind from 034 at 5 knots gusting 13

Air temperature 26.7° C
Dewpoint 21.9° C

Last reported at 2019-Sep-20 02:55 UTC.
Time now 2019-Sep-20 04:15 UTC

Location: N 25°50' W 080°08'.
View on Google Maps.

See reports from other nearby stations

  
Tides and Currents Weather Stations Pressure Air Temp Water Temp Dewpoint Dewpoint Depression Visibility Wind Speed Wind Dir Waves Ship Positions
date/time (UTC)wind fromknots sea level pressurealtimeterstation pressurevisibilityair tempwater tempwave heightnotes
2019-Sep-20 02:55 034 5 gusting 13 26.7
2019-Sep-20 02:50 018 4 gusting 13 26.7
2019-Sep-20 02:46 034 5 gusting 13 26.7
2019-Sep-20 02:40 030 4 gusting 15 26.7
2019-Sep-20 02:35 028 6 gusting 15 26.7
2019-Sep-20 02:31 063 3 gusting 15 26.7
2019-Sep-20 02:25 088 3 gusting 14 26.7
2019-Sep-20 02:20 052 6 gusting 14 26.7
2019-Sep-20 02:16 032 6 gusting 14 26.7
2019-Sep-20 02:10 029 5 gusting 13 26.7
2019-Sep-20 02:05 029 5 gusting 13 26.7
2019-Sep-20 02:01 057 4 gusting 13 26.7
2019-Sep-20 01:55 043 4 gusting 13 26.7
2019-Sep-20 01:50 056 5 gusting 13 26.7
2019-Sep-20 01:46 344 5 gusting 15 26.7
2019-Sep-20 01:40 030 5 gusting 15 26.7
2019-Sep-20 01:35 011 5 gusting 14 26.1
2019-Sep-20 01:31 032 6 gusting 14 26.1
2019-Sep-20 01:25 032 5 gusting 18 26.1
2019-Sep-20 01:20 271 6 gusting 18 26.7
2019-Sep-20 01:16 269 5 gusting 12 27.2
2019-Sep-20 01:10 011 3 gusting 13 27.2
2019-Sep-20 01:05 079 4 gusting 13 27.2
2019-Sep-20 01:01 040 3 gusting 13 27.2
2019-Sep-20 00:55 104 3 gusting 13 27.2
2019-Sep-20 00:51 045 3 gusting 8 27.2
2019-Sep-20 00:46 044 1 gusting 10 27.2
2019-Sep-20 00:40 059 3 gusting 10 27.2
2019-Sep-20 00:35 186 2 gusting 12 27.2
2019-Sep-20 00:32 039 3 gusting 12 27.2
2019-Sep-20 00:25 009 3 gusting 13 27.2
2019-Sep-20 00:20 036 5 gusting 13 27.2
2019-Sep-20 00:16 009 3 gusting 10 27.2
2019-Sep-20 00:10 036 1 gusting 8 27.2
2019-Sep-20 00:05 360 1 gusting 14 27.2
2019-Sep-20 00:01 025 3 gusting 14 27.2
2019-Sep-19 23:55 045 4 gusting 13 27.2
2019-Sep-19 23:50 352 4 gusting 13 27.2
2019-Sep-19 23:46 022 3 gusting 13 27.2
2019-Sep-19 23:40 347 2 gusting 13 27.2
2019-Sep-19 23:35 028 4 gusting 13 27.2
2019-Sep-19 23:32 352 4 gusting 13 27.2
2019-Sep-19 23:25 050 4 gusting 12 27.2
2019-Sep-19 23:20 020 4 gusting 12 27.2
2019-Sep-19 23:16 321 3 gusting 12 27.2
2019-Sep-19 23:10 036 3 gusting 11 27.2
2019-Sep-19 23:05 015 4 gusting 13 27.2
2019-Sep-19 23:00 352 5 gusting 13 27.2
2019-Sep-19 22:55 071 4 gusting 13 27.2
2019-Sep-19 22:50 360 5 gusting 13 27.2
2019-Sep-19 22:46 046 4 gusting 15 27.2
2019-Sep-19 22:40 036 5 gusting 15 27.2
2019-Sep-19 22:35 360 4 gusting 11 27.2
2019-Sep-19 22:32 338 4 gusting 11 27.8
2019-Sep-19 22:26 348 4 gusting 11 27.8
2019-Sep-19 22:20 015 4 gusting 13 27.8
2019-Sep-19 22:16 015 3 gusting 13 27.8
2019-Sep-19 22:10 052 3 gusting 13 27.8
2019-Sep-19 22:05 048 5 gusting 13 27.8
2019-Sep-19 22:01 27.8
2019-Sep-19 21:55 032 3 gusting 14 28.3
2019-Sep-19 21:50 011 4 gusting 14 28.3
2019-Sep-19 21:46 348 1 gusting 12 28.3
2019-Sep-19 21:40 024 5 gusting 12 28.3
2019-Sep-19 21:35 040 4 gusting 11 28.3
2019-Sep-19 21:31 036 3 gusting 12 28.3
2019-Sep-19 21:25 065 5 gusting 12 28.3
2019-Sep-19 21:20 033 4 gusting 10 28.3
2019-Sep-19 21:17 035 1 gusting 11 28.3
2019-Sep-19 21:10 048 3 gusting 11 28.3
2019-Sep-19 21:05 036 3 gusting 11 28.3
2019-Sep-19 21:01 034 4 gusting 13 28.3
2019-Sep-19 20:55 034 5 gusting 13 28.3
2019-Sep-19 20:50 037 2 gusting 11 28.3
2019-Sep-19 20:46 046 3 gusting 11 28.3
2019-Sep-19 20:40 037 2 gusting 9 28.3
2019-Sep-19 20:35 323 3 gusting 11 28.3
2019-Sep-19 20:31 057 3 gusting 15 28.3
2019-Sep-19 20:25 045 5 gusting 15 28.3
2019-Sep-19 20:20 157 2 gusting 14 28.3
2019-Sep-19 20:16 013 4 gusting 14 28.3
2019-Sep-19 20:10 005 3 gusting 13 28.9
2019-Sep-19 20:05 360 4 gusting 13 28.9
2019-Sep-19 20:01 352 1 gusting 13 28.9
2019-Sep-19 19:55 038 4 gusting 13 29.4
2019-Sep-19 19:50 046 3 gusting 12 29.4
2019-Sep-19 19:46 086 3 gusting 9 29.4
2019-Sep-19 19:40 047 4 gusting 15 29.4
2019-Sep-19 19:35 076 3 gusting 15 29.4
2019-Sep-19 19:31 061 2 gusting 14 29.4
2019-Sep-19 19:25 071 2 gusting 14 29.4
2019-Sep-19 19:20 046 3 gusting 11 29.4
2019-Sep-19 19:16 29.4
2019-Sep-19 19:11 005 3 gusting 12 29.4
2019-Sep-19 19:05 231 3 gusting 12 28.9
2019-Sep-19 19:01 038 3 gusting 12 29.4
2019-Sep-19 18:55 036 4 gusting 12 29.4
2019-Sep-19 18:50 044 3 gusting 13 29.4
2019-Sep-19 18:46 027 4 gusting 13 29.4
2019-Sep-19 18:40 034 4 gusting 10 29.4
2019-Sep-19 18:35 330 3 gusting 10 29.4
2019-Sep-19 18:31 167 3 gusting 11 28.9
2019-Sep-19 18:25 190 3 gusting 11 28.3
2019-Sep-19 18:20 035 5 gusting 11 28.3
2019-Sep-19 18:16 025 3 gusting 12 28.9
2019-Sep-19 18:10 026 4 gusting 13 28.3
2019-Sep-19 18:05 150 3 gusting 13 28.9
2019-Sep-19 18:02 107 4 gusting 11 29.4
2019-Sep-19 17:55 074 3 gusting 10 29.4
2019-Sep-19 17:50 052 2 gusting 13 29.4
2019-Sep-19 17:46 103 3 gusting 13 29.4
2019-Sep-19 17:40 126 3 gusting 10 29.4
2019-Sep-19 17:35 138 3 gusting 8 29.4
2019-Sep-19 17:31 040 2 gusting 14 29.4
2019-Sep-19 17:25 027 4 gusting 14 28.9
2019-Sep-19 17:20 032 3 gusting 10 29.4
2019-Sep-19 17:16 032 3 gusting 9 29.4
2019-Sep-19 17:10 352 3 gusting 12 28.9
2019-Sep-19 17:05 005 5 gusting 12 28.9
2019-Sep-19 17:01 073 3 gusting 11 28.9
2019-Sep-19 16:55 105 3 gusting 11 28.9
2019-Sep-19 16:50 325 4 gusting 12 28.9
2019-Sep-19 16:46 304 2 gusting 12 28.9
2019-Sep-19 16:40 018 5 gusting 13 28.9
2019-Sep-19 16:35 011 3 gusting 13 29.4
2019-Sep-19 16:31 014 2 gusting 9 29.4
2019-Sep-19 16:25 248 1 gusting 10 28.9
2019-Sep-19 16:20 059 2 gusting 10 28.9
2019-Sep-19 16:17 349 2 gusting 11 28.9
2019-Sep-19 16:10 045 4 gusting 11 28.9
2019-Sep-19 16:05 098 2 gusting 9 28.9
2019-Sep-19 16:00 031 2 gusting 8 29.4
2019-Sep-19 15:55 046 1 gusting 10 29.4
2019-Sep-19 15:50 074 2 gusting 11 29.4
2019-Sep-19 15:46 036 3 gusting 11 29.4
2019-Sep-19 15:40 013 2 gusting 10 29.4
2019-Sep-19 15:35 071 1 gusting 12 29.4
2019-Sep-19 15:31 019 3 gusting 12 28.9
2019-Sep-19 15:25 055 4 gusting 12 28.9
2019-Sep-19 15:20 305 3 gusting 11 28.9
2019-Sep-19 15:16 036 3 gusting 10 28.9
2019-Sep-19 15:11 043 3 gusting 10 28.9
2019-Sep-19 15:05 017 2 gusting 9 28.9
2019-Sep-19 15:01 031 3 gusting 9 28.9
2019-Sep-19 14:55 360 3 gusting 8 28.9
2019-Sep-19 14:51 106 2 gusting 11 28.9
2019-Sep-19 14:46 024 4 gusting 11 28.3
2019-Sep-19 14:40 042 4 gusting 10 28.3
2019-Sep-19 14:35 022 2 gusting 10 28.3
2019-Sep-19 14:31 102 2 gusting 10 28.3
2019-Sep-19 14:25 084 3 gusting 10 28.3
2019-Sep-19 14:20 053 2 gusting 10 28.3
2019-Sep-19 14:16 045 2 gusting 12 28.3
2019-Sep-19 14:10 049 3 gusting 12 28.3
2019-Sep-19 14:05 052 3 gusting 10 28.3
2019-Sep-19 14:01 093 2 gusting 12 28.3
2019-Sep-19 13:55 190 3 gusting 12 28.3
2019-Sep-19 13:50 315 2 gusting 12 28.3
2019-Sep-19 13:46 111 4 gusting 12 27.8
2019-Sep-19 13:40 044 1 gusting 9 27.8
2019-Sep-19 13:35 023 4 gusting 11 27.8
2019-Sep-19 13:31 275 3 gusting 11 27.8
2019-Sep-19 13:25 325 3 gusting 13 27.8
2019-Sep-19 13:20 324 5 gusting 13 27.8
2019-Sep-19 13:16 047 2 gusting 12 27.8
2019-Sep-19 13:10 040 2 gusting 12 27.8
2019-Sep-19 13:05 022 1 gusting 9 27.8
2019-Sep-19 13:01 109 2 gusting 10 27.8
2019-Sep-19 12:55 069 3 gusting 10 27.8
2019-Sep-19 12:50 040 2 gusting 11 27.2
2019-Sep-19 12:46 078 3 gusting 11 27.2
2019-Sep-19 12:40 155 2 gusting 7 27.2
2019-Sep-19 12:35 352 2 gusting 13 26.7
2019-Sep-19 12:31 306 3 gusting 13 26.7
2019-Sep-19 12:25 042 4 gusting 11 26.7
2019-Sep-19 12:20 060 3 gusting 11 26.7
2019-Sep-19 12:17 049 3 gusting 13 26.7
2019-Sep-19 12:10 044 4 gusting 13 26.7
2019-Sep-19 12:05 338 4 gusting 12 26.7
2019-Sep-19 12:01 360 3 gusting 12 26.7
2019-Sep-19 11:55 027 3 gusting 13 26.7
2019-Sep-19 11:50 031 5 gusting 13 26.7
2019-Sep-19 11:46 039 3 gusting 12 26.7
2019-Sep-19 11:40 360 2 gusting 11 26.7
2019-Sep-19 11:35 031 3 gusting 11 26.7
2019-Sep-19 11:31 036 2 gusting 10 26.7
2019-Sep-19 11:25 064 4 gusting 11 26.7
2019-Sep-19 11:20 051 3 gusting 11 26.7
2019-Sep-19 11:16 339 2 gusting 13 26.7
2019-Sep-19 11:10 059 5 gusting 13 26.7
2019-Sep-19 11:05 030 2 gusting 11 26.7
2019-Sep-19 11:01 022 3 gusting 9 26.7
2019-Sep-19 10:55 005 3 gusting 11 26.7
2019-Sep-19 10:50 005 4 gusting 11 26.7
2019-Sep-19 10:46 066 2 gusting 8 26.7
2019-Sep-19 10:40 022 3 gusting 8 26.7
2019-Sep-19 10:35 034 1 gusting 8 26.7
2019-Sep-19 10:31 005 4 gusting 8 26.7
2019-Sep-19 10:25 053 2 gusting 12 26.7
2019-Sep-19 10:20 036 2 gusting 12 26.7
2019-Sep-19 10:16 038 1 gusting 9 26.7
2019-Sep-19 10:10 032 1 gusting 11 26.7
2019-Sep-19 10:05 064 1 gusting 11 26.7
2019-Sep-19 10:02 015 3 gusting 11 26.7
2019-Sep-19 09:55 005 3 gusting 11 26.7
2019-Sep-19 09:50 030 3 gusting 10 26.7
2019-Sep-19 09:47 040 1 gusting 8 26.7
2019-Sep-19 09:40 036 2 gusting 8 26.7
2019-Sep-19 09:36 040 2 gusting 10 26.7
2019-Sep-19 09:31 352 2 gusting 12 26.7
2019-Sep-19 09:25 059 2 gusting 12 26.7
2019-Sep-19 09:20 005 3 gusting 12 26.7
2019-Sep-19 09:16 054 4 gusting 12 26.7
2019-Sep-19 09:10 005 3 gusting 12 26.7
2019-Sep-19 09:06 029 4 gusting 16 26.7
2019-Sep-19 09:02 017 5 gusting 16 26.7
2019-Sep-19 08:55 056 3 gusting 13 26.7
2019-Sep-19 08:50 038 4 gusting 10 26.7
2019-Sep-19 08:47 040 2 gusting 15 26.7
2019-Sep-19 08:41 054 5 gusting 15 26.7
2019-Sep-19 08:35 017 4 gusting 12 26.7
2019-Sep-19 08:32 022 3 gusting 12 26.7
2019-Sep-19 08:25 26.7
2019-Sep-19 08:20 020 4 gusting 12 26.7
2019-Sep-19 08:18 305 3 gusting 11 26.7
2019-Sep-19 08:10 016 3 gusting 11 26.7
2019-Sep-19 08:05 031 4 gusting 15 26.7
2019-Sep-19 08:01 083 5 gusting 15 26.7
2019-Sep-19 07:55 032 4 gusting 13 26.7
2019-Sep-19 07:50 040 3 gusting 11 26.7
2019-Sep-19 07:46 033 3 gusting 10 26.7
2019-Sep-19 07:40 030 2 gusting 8 26.7
2019-Sep-19 07:35 005 2 gusting 8 26.7
2019-Sep-19 07:30 042 3 gusting 14 26.7
2019-Sep-19 07:25 315 2 gusting 14 26.7
2019-Sep-19 07:20 015 3 gusting 14 26.7
2019-Sep-19 07:16 034 3 gusting 15 26.7
2019-Sep-19 07:10 321 5 gusting 15 27.2
2019-Sep-19 07:05 013 3 gusting 13 27.2
2019-Sep-19 07:01 005 5 gusting 13 27.2
2019-Sep-19 06:55 321 5 gusting 13 27.2
2019-Sep-19 06:50 114 2 gusting 13 27.2
2019-Sep-19 06:47 070 5 gusting 13 27.2
2019-Sep-19 06:40 034 4 gusting 14 27.2
2019-Sep-19 06:35 036 5 gusting 14 27.2
2019-Sep-19 06:32 009 4 gusting 10 27.2
2019-Sep-19 06:25 054 3 gusting 13 27.2
2019-Sep-19 06:20 040 5 gusting 13 27.2
2019-Sep-19 06:16 360 6 gusting 13 27.2
2019-Sep-19 06:10 055 6 gusting 15 27.2
2019-Sep-19 06:05 342 5 gusting 15 27.2
2019-Sep-19 06:01 360 1 gusting 10 27.2
2019-Sep-19 05:55 058 3 gusting 12 27.2
2019-Sep-19 05:50 026 4 gusting 12 27.2
2019-Sep-19 05:47 042 2 gusting 10 27.2
2019-Sep-19 05:40 041 1 gusting 11 27.2
2019-Sep-19 05:35 033 1 gusting 11 27.2
2019-Sep-19 05:31 339 3 gusting 11 27.2
2019-Sep-19 05:25 013 2 gusting 11 27.8
2019-Sep-19 05:20 046 3 gusting 14 27.8
2019-Sep-19 05:16 028 3 gusting 14 27.8
2019-Sep-19 05:10 044 2 gusting 11 27.8
2019-Sep-19 05:05 053 3 gusting 11 27.2
2019-Sep-19 05:01 042 2 gusting 13 27.8
2019-Sep-19 04:55 059 5 gusting 13 27.2
2019-Sep-19 04:50 013 1 gusting 10 27.8
2019-Sep-19 04:46 040 3 gusting 10 27.8
2019-Sep-19 04:40 049 2 gusting 8 27.8
2019-Sep-19 04:35 005 1 gusting 10 27.8
2019-Sep-19 04:31 027 3 gusting 10 27.8
2019-Sep-19 04:25 017 3 gusting 10 27.8
2019-Sep-19 04:20 026 2 gusting 9 27.8
2019-Sep-19 04:16 005 3 gusting 12 27.8
2019-Sep-19 04:10 315 3 gusting 13 27.8
2019-Sep-19 04:05 015 4 gusting 13 27.8
2019-Sep-19 04:01 047 2 gusting 11 27.8
2019-Sep-19 03:55 316 4 gusting 11 27.8
2019-Sep-19 03:50 360 3 gusting 11 27.8
2019-Sep-19 03:46 017 3 gusting 11 27.8
2019-Sep-19 03:40 048 3 gusting 12 27.8
2019-Sep-19 03:35 076 3 gusting 13 27.8
2019-Sep-19 03:31 040 4 gusting 13 27.8
2019-Sep-19 03:25 050 2 gusting 9 27.8
2019-Sep-19 03:21 360 2 gusting 10 27.8
2019-Sep-19 03:17 046 3 gusting 12 27.8
2019-Sep-19 03:10 033 4 gusting 12 27.8
2019-Sep-19 03:05 055 2 gusting 12 27.8
2019-Sep-19 03:01 024 3 gusting 13 27.8
2019-Sep-19 02:55 038 5 gusting 13 27.8
2019-Sep-19 02:50 030 3 gusting 12 27.8
2019-Sep-19 02:47 013 3 gusting 12 27.8
2019-Sep-19 02:40 005 3 gusting 8 27.8
2019-Sep-19 02:35 009 2 gusting 10 27.8
2019-Sep-19 02:32 030 3 gusting 12 27.8
2019-Sep-19 02:25 053 4 gusting 12 27.8
2019-Sep-19 02:20 054 3 gusting 13 27.8
2019-Sep-19 02:17 046 3 gusting 16 27.8
2019-Sep-19 02:10 333 4 gusting 16 27.8
2019-Sep-19 02:06 360 3 gusting 12 27.8
2019-Sep-19 02:01 018 4 gusting 12 27.8
2019-Sep-19 01:55 051 1 gusting 10 27.8
2019-Sep-19 01:51 044 3 gusting 10 27.8
2019-Sep-19 01:46 048 4 gusting 10 27.8
2019-Sep-19 01:40 360 2 gusting 13 27.8
2019-Sep-19 01:35 048 4 gusting 13 27.8
2019-Sep-19 01:31 097 5 gusting 13 27.8
2019-Sep-19 01:25 036 2 gusting 8 27.8
2019-Sep-19 01:20 044 3 gusting 9 28.3
2019-Sep-19 01:16 038 2 gusting 9 28.3
2019-Sep-19 01:10 012 3 gusting 12 28.3
2019-Sep-19 01:05 046 4 gusting 12 27.8
2019-Sep-19 01:02 030 3 gusting 14 27.8
2019-Sep-19 00:55 028 3 gusting 14 28.3
2019-Sep-19 00:50 058 4 gusting 14 28.3
2019-Sep-19 00:46 360 3 gusting 12 28.3
2019-Sep-19 00:41 021 1 gusting 10 28.3
2019-Sep-19 00:36 047 2 gusting 10 28.3
2019-Sep-19 00:31 044 3 gusting 9 28.3
2019-Sep-19 00:25 023 3 gusting 10 28.3
2019-Sep-19 00:20 011 3 gusting 10 28.3
2019-Sep-19 00:16 011 3 gusting 11 28.3
2019-Sep-19 00:10 046 2 gusting 11 28.3
2019-Sep-19 00:05 005 3 gusting 8 28.3
2019-Sep-19 00:02 024 2 gusting 8 28.3
2019-Sep-18 23:55 032 2 gusting 10 28.3
2019-Sep-18 23:50 032 2 gusting 10 28.3
2019-Sep-18 23:47 352 2 gusting 9 28.3
2019-Sep-18 23:40 038 2 gusting 12 28.3
2019-Sep-18 23:35 348 2 gusting 12 28.3
2019-Sep-18 23:32 013 3 gusting 10 28.3
2019-Sep-18 23:25 053 3 gusting 8 28.3
2019-Sep-18 23:20 038 2 gusting 10 28.3
2019-Sep-18 23:16 055 3 gusting 11 28.3
2019-Sep-18 23:10 352 2 gusting 11 28.3
2019-Sep-18 23:05 040 4 gusting 13 28.3
2019-Sep-18 23:01 026 3 gusting 13 28.3
2019-Sep-18 22:55 024 3 gusting 9 28.3
2019-Sep-18 22:50 037 2 gusting 10 28.3
2019-Sep-18 22:46 360 2 gusting 10 28.3
2019-Sep-18 22:40 011 3 gusting 12 28.9
2019-Sep-18 22:35 005 2 gusting 12 28.9
2019-Sep-18 22:31 040 1 gusting 9 28.9
2019-Sep-18 22:25 044 3 gusting 8 28.9
2019-Sep-18 22:20 065 2 gusting 9 28.9
2019-Sep-18 22:16 005 2 gusting 9 28.9
2019-Sep-18 22:11 050 2 gusting 8 28.9
2019-Sep-18 22:05 034 1 gusting 9 28.9
2019-Sep-18 22:02 046 3 gusting 9 28.9
2019-Sep-18 21:56 052 2 gusting 11 28.9
2019-Sep-18 21:50 037 5 gusting 11 28.9
2019-Sep-18 21:46 022 3 gusting 12 28.9
2019-Sep-18 21:41 352 4 gusting 12 28.9
2019-Sep-18 21:36 037 4 gusting 12 28.9
2019-Sep-18 21:32 015 4 gusting 11 28.9
2019-Sep-18 21:25 009 5 gusting 11 28.9
2019-Sep-18 21:20 080 3 gusting 10 29.4
2019-Sep-18 21:16 034 3 gusting 10 29.4
2019-Sep-18 21:11 048 4 gusting 10 29.4
2019-Sep-18 21:05 030 2 gusting 9 29.4
2019-Sep-18 21:01 046 2 gusting 9 29.4
2019-Sep-18 20:55 005 3 gusting 10 29.4
2019-Sep-18 20:50 024 3 gusting 10 29.4
2019-Sep-18 20:46 360 2 gusting 11 29.4
2019-Sep-18 20:40 347 3 gusting 11 29.4
2019-Sep-18 20:35 023 2 gusting 9 30.0
2019-Sep-18 20:31 360 1 gusting 12 29.4
2019-Sep-18 20:25 036 4 gusting 13 29.4
2019-Sep-18 20:20 026 5 gusting 13 29.4
2019-Sep-18 20:16 049 3 gusting 10 30.0
2019-Sep-18 20:10 015 3 gusting 9 30.0
2019-Sep-18 20:05 011 3 gusting 10 30.0
2019-Sep-18 20:01 024 2 gusting 10 30.0
2019-Sep-18 19:55 042 3 gusting 8 30.6
2019-Sep-18 19:50 129 2 gusting 10 30.6
2019-Sep-18 19:46 011 2 gusting 10 30.6
2019-Sep-18 19:40 049 3 gusting 10 30.6
2019-Sep-18 19:35 034 3 gusting 10 30.6
2019-Sep-18 19:31 031 2 gusting 8 31.1
2019-Sep-18 19:25 042 2 gusting 8 30.6
2019-Sep-18 19:20 352 1 gusting 8 30.6
2019-Sep-18 19:16 352 2 gusting 8 30.6
2019-Sep-18 19:10 027 2 gusting 7 31.1
2019-Sep-18 19:05 019 2 gusting 9 31.1
2019-Sep-18 19:01 021 1 gusting 10 30.6
2019-Sep-18 18:55 078 3 gusting 10 30.6
2019-Sep-18 18:50 044 2 gusting 8 30.6
2019-Sep-18 18:47 053 3 gusting 9 30.6
2019-Sep-18 18:40 024 3 gusting 12 30.6
2019-Sep-18 18:35 024 4 gusting 12 30.6
2019-Sep-18 18:31 080 2 gusting 9 30.6
2019-Sep-18 18:25 005 3 gusting 9 30.6
2019-Sep-18 18:21 023 4 gusting 9 30.6
2019-Sep-18 18:16 101 2 gusting 11 30.6
2019-Sep-18 18:10 022 3 gusting 11 30.6
2019-Sep-18 18:05 039 2 gusting 11 30.6
2019-Sep-18 18:02 040 4 gusting 10 30.6
2019-Sep-18 17:55 011 3 gusting 9 30.6
2019-Sep-18 17:50 352 1 gusting 10 30.6
2019-Sep-18 17:46 040 3 gusting 11 30.0
2019-Sep-18 17:40 059 4 gusting 11 30.0
2019-Sep-18 17:35 042 3 gusting 9 30.6
2019-Sep-18 17:32 036 2 gusting 9 30.6
2019-Sep-18 17:25 025 3 gusting 9 30.6
2019-Sep-18 17:20 049 3 gusting 10 30.6
2019-Sep-18 17:17 014 5 gusting 10 30.6
2019-Sep-18 17:10 033 2 gusting 11 30.6
2019-Sep-18 17:05 050 3 gusting 11 30.6
2019-Sep-18 17:02 034 3 gusting 11 30.6
2019-Sep-18 16:55 022 2 gusting 10 30.6
2019-Sep-18 16:50 016 4 gusting 10 30.6
2019-Sep-18 16:47 019 4 gusting 10 30.6
2019-Sep-18 16:40 032 2 gusting 8 30.6
2019-Sep-18 16:35 055 3 gusting 8 30.6
2019-Sep-18 16:31 338 2 gusting 10 30.6
2019-Sep-18 16:25 352 4 gusting 11 30.0
2019-Sep-18 16:21 032 4 gusting 11 30.0
2019-Sep-18 16:17 046 3 gusting 10 30.0
2019-Sep-18 16:10 067 3 gusting 10 30.0
2019-Sep-18 16:05 019 3 gusting 12 30.0
2019-Sep-18 16:01 138 3 gusting 13 30.0
2019-Sep-18 15:55 033 4 gusting 13 30.0
2019-Sep-18 15:50 005 4 gusting 10 30.0
2019-Sep-18 15:46 344 3 gusting 9 30.0
2019-Sep-18 15:40 022 3 gusting 10 30.0
2019-Sep-18 15:35 013 4 gusting 11 30.0
2019-Sep-18 15:31 117 3 gusting 11 30.0
2019-Sep-18 15:25 348 2 gusting 9 29.4
2019-Sep-18 15:20 024 2 gusting 9 30.0
2019-Sep-18 15:16 046 3 gusting 7 30.0
2019-Sep-18 15:10 039 2 gusting 7 30.6
2019-Sep-18 15:05 017 1 gusting 6 30.6
2019-Sep-18 15:02 30.6
2019-Sep-18 14:55 041 1 gusting 7 30.0
2019-Sep-18 14:50 049 2 gusting 7 30.0
2019-Sep-18 14:46 026 2 gusting 8 29.4
2019-Sep-18 14:40 029 2 gusting 8 29.4
2019-Sep-18 14:35 061 2 gusting 7 29.4
2019-Sep-18 14:31 033 1 gusting 6 29.4
2019-Sep-18 14:25 036 1 gusting 5 28.9
2019-Sep-18 14:20 013 1 gusting 7 28.9
2019-Sep-18 14:16 049 1 gusting 7 28.9
2019-Sep-18 14:10 018 2 gusting 9 28.9
2019-Sep-18 14:06 032 3 gusting 9 29.4
2019-Sep-18 14:01 016 1 gusting 5 28.9
2019-Sep-18 13:55 018 1 gusting 6 28.9
2019-Sep-18 13:50 042 0 gusting 6 28.3
2019-Sep-18 13:46 038 0 gusting 7 28.3
2019-Sep-18 13:41 034 1 gusting 7 28.3
2019-Sep-18 13:35 026 1 gusting 7 28.3
2019-Sep-18 13:31 034 1 gusting 6 27.8
2019-Sep-18 13:25 036 0 gusting 4 27.2
2019-Sep-18 13:20 27.2
2019-Sep-18 13:16 349 0 gusting 5 26.7
2019-Sep-18 13:10 350 1 gusting 5 26.7
2019-Sep-18 13:05 277 0 gusting 3 26.1
2019-Sep-18 13:01 026 0 gusting 2 26.1
2019-Sep-18 12:55 25.6
2019-Sep-18 12:51 25.6
2019-Sep-18 12:46 352 0 gusting 3 25.6
2019-Sep-18 12:40 25.6
2019-Sep-18 12:35 355 0 gusting 2 25.0
2019-Sep-18 12:33 360 0 gusting 2 25.6
2019-Sep-18 12:25 015 25.6
2019-Sep-18 12:20 032 25.0
2019-Sep-18 12:16 25.6
2019-Sep-18 12:10 25.6
2019-Sep-18 12:05 25.6
2019-Sep-18 12:01 25.6
2019-Sep-18 11:55 25.6
2019-Sep-18 11:50 25.6
2019-Sep-18 11:47 25.6
2019-Sep-18 11:40 034 25.6
2019-Sep-18 11:35 25.6
2019-Sep-18 11:31 034 25.6
2019-Sep-18 11:25 25.6
2019-Sep-18 11:20 322 0 gusting 6 26.1
2019-Sep-18 11:17 291 2 gusting 6 26.1
2019-Sep-18 11:10 327 0 gusting 3 26.1
2019-Sep-18 11:05 26.1
2019-Sep-18 11:02 26.1
2019-Sep-18 10:55 26.1
2019-Sep-18 10:50 26.1
2019-Sep-18 10:46 327 0 gusting 3 26.1
2019-Sep-18 10:41 329 1 gusting 3 26.1
2019-Sep-18 10:35 352 0 gusting 6 26.1
2019-Sep-18 10:31 299 0 gusting 6 26.1
2019-Sep-18 10:25 339 1 gusting 6 26.1
2019-Sep-18 10:20 26.1
2019-Sep-18 10:17 26.1
2019-Sep-18 10:10 26.1
2019-Sep-18 10:05 25.6
2019-Sep-18 10:01 306 25.6
2019-Sep-18 09:55 305 25.6
2019-Sep-18 09:50 305 25.6
2019-Sep-18 09:47 305 25.6
2019-Sep-18 09:40 25.6
2019-Sep-18 09:35 26.1
2019-Sep-18 09:32 26.1
2019-Sep-18 09:26 304 26.1
2019-Sep-18 09:20 304 26.1
2019-Sep-18 09:16 26.1
2019-Sep-18 09:10 304 26.1
2019-Sep-18 09:05 304 26.1
2019-Sep-18 09:01 304 0 gusting 1 26.1
2019-Sep-18 08:55 26.1
2019-Sep-18 08:50 26.1
2019-Sep-18 08:47 26.1
2019-Sep-18 08:40 304 26.1
2019-Sep-18 08:35 304 0 gusting 3 26.1
2019-Sep-18 08:33 304 26.1
2019-Sep-18 08:25 26.1
2019-Sep-18 08:20 26.1
2019-Sep-18 08:16 300 26.1
2019-Sep-18 08:10 26.1
2019-Sep-18 08:05 26.1
2019-Sep-18 08:01 337 0 gusting 4 26.1
2019-Sep-18 07:55 325 1 gusting 5 26.1
2019-Sep-18 07:50 352 1 gusting 5 26.1
2019-Sep-18 07:46 26.1
2019-Sep-18 07:40 038 25.6
2019-Sep-18 07:35 021 0 gusting 6 25.6
2019-Sep-18 07:31 25.6
2019-Sep-18 07:25 145 3 gusting 9 26.1
2019-Sep-18 07:20 049 1 gusting 5 26.7
2019-Sep-18 07:16 336 1 gusting 6 26.7
2019-Sep-18 07:10 344 1 gusting 6 26.7
2019-Sep-18 07:06 340 1 gusting 5 26.7
2019-Sep-18 07:02 302 0 gusting 4 26.7
2019-Sep-18 06:56 338 0 gusting 4 26.7
2019-Sep-18 06:50 334 1 gusting 4 26.7
2019-Sep-18 06:46 327 0 gusting 3 26.7
2019-Sep-18 06:40 324 0 gusting 3 26.7
2019-Sep-18 06:35 313 0 gusting 5 27.2
2019-Sep-18 06:31 27.2
2019-Sep-18 06:25 328 0 gusting 3 27.2
2019-Sep-18 06:20 330 0 gusting 3 27.2
2019-Sep-18 06:17 328 27.2
2019-Sep-18 06:10 323 27.2
2019-Sep-18 06:05 338 0 gusting 3 27.2
2019-Sep-18 06:02 351 0 gusting 3 27.2
2019-Sep-18 05:55 27.2
2019-Sep-18 05:50 028 27.2
2019-Sep-18 05:47 27.2
2019-Sep-18 05:40 036 27.8
2019-Sep-18 05:35 27.8
2019-Sep-18 05:31 015 27.8
2019-Sep-18 05:25 27.8
2019-Sep-18 05:20 27.8
2019-Sep-18 05:16 27.8
2019-Sep-18 05:10 27.8
2019-Sep-18 05:05 27.8
2019-Sep-18 05:01 27.8
2019-Sep-18 04:55 27.8
2019-Sep-18 04:50 28.3
2019-Sep-18 04:46 032 0 gusting 4 28.3
2019-Sep-18 04:40 018 0 gusting 3 27.8
2019-Sep-18 04:35 026 0 gusting 2 27.8
2019-Sep-18 04:32 28.3
2019-Sep-18 04:25 28.3
2019-Sep-18 04:20 032 0 gusting 4 28.3
2019-Sep-18 04:16 029 0 gusting 6 28.3
2019-Sep-18 04:10 040 0 gusting 6 28.3
2019-Sep-18 04:05 044 0 gusting 4 28.3
2019-Sep-18 04:01 041 0 gusting 5 28.3